Weather in Marfino

Russia / Astrakhan Oblast     46°24′13″N   48°43′10″E
temp.,
°C
wind,
m/s
gust,
m/s
humid.,
%
clouds,
%
prec.,
mm/h
press.,
hPa
HPBL,
m
1 august, sun
sun101:00+23s226175 0.0 101224
04:00+22sw226260 0.0 101111
07:00+25e004885 0.0 101263
10:00+33e342589 0.0 10121081
13:00+37se441647 0.0 10112952
16:00+36s542164 0.0 10102124
19:00+35s442336 0.0 10101199
22:00+27ssw343539 0.0 101141
2 august, mon
mon201:00+25sw22375 0.0 101114
04:00+24nnw113899 0.0 101111
07:00+28ne222838 0.0 101267
10:00+36e34165 0.0 1012987
13:00+40se65107 0.0 10113965
16:00+39se7510100 0.0 10113203
19:00+35se4513100 0.0 1011287
22:00+28s332498 0.0 101118
3 august, tue
tue301:00+27ssw333178 0.0 101123
04:00+24sw11358 0.0 101111
07:00+29nne232470 0.0 101270
10:00+38ene231014 0.0 1011907
13:00+41se54898 0.0 10104661
16:00+41sse6485 0.0 10094677
19:00+38sse68110 0.0 1009467
22:00+28sw44230 0.0 101042
4 august, wed
wed401:00+26sw33240 0.0 101014
04:00+26sw33280 0.0 101114
07:00+28sw12260 0.0 101150
10:00+37s34120 0.0 1011957
13:00+41s7790 0.0 10104044
16:00+41s8792 0.0 10093978
19:00+37s79135 0.0 1010537
22:00+28sw472883 0.0 101187
5 august, thu
thu501:00+27w453071 0.0 101165
04:00+26nw343890 0.0 101045
07:00+29nnw363612 0.0 1011192
10:00+34n782898 0.0 10121268
13:00+34n9930100 0.0 10131848
16:00+30wnw5637100 0.0 1013600
19:00+32nnw67333 0.0 10121383
22:00+27n34390 0.0 101241